Regional Weather Roundup
Issued by NWS

Home | Current Version | Previous Version | Text Only | Print | Product List | Glossary Off
Versions: 1 2 3 4 5 6 7 8 9 10 11 12 13 14 15 16 17 18 19 20 21 22 23 24 25 26 27 28 29 30 31 32 33 34 35 36 37 38 39 40 41 42 43 44 45 46 47 48 49 50

000
ASUS43 KLOT 021300
RWRIL

ILLINOIS REGIONAL WEATHER ROUNDUP
NATIONAL WEATHER SERVICE CHICAGO/ROMEOVILLE IL
800 AM CDT THU OCT 02 2014

NOTE: "FAIR" INDICATES FEW OR NO CLOUDS BELOW 12,000 FEET WITH NO
SIGNIFICANT WEATHER AND/OR OBSTRUCTIONS TO VISIBILITY.

* THESE STATIONS ARE NOT UNDER NWS QUALITY CONTROL. THEY ALSO MAY NOT
  REPORT WEATHER SUCH AS PRECIPITATION OR FOG.

ILZ001-002-007-009-015-016-024-021400-
NORTHWEST ILLINOIS

CITY           SKY/WX    TMP DP  RH WIND       PRES   REMARKS
MOLINE         PTSUNNY   60  59  96 CALM      29.82S FOG
$$

ILZ003-004-008-010-011-017-018-021400-
NORTH CENTRAL ILLINOIS

CITY           SKY/WX    TMP DP  RH WIND       PRES   REMARKS
ROCKFORD       CLOUDY    64  60  87 SE7       29.86F
FREEPORT*      CLOUDY    60  59  95 CALM      29.85S FOG
$$

ILZ005-006-012>014-019>023-021400-
NORTHEAST ILLINOIS

CITY           SKY/WX    TMP DP  RH WIND       PRES   REMARKS
CHICAGO-OHARE  CLOUDY    64  60  87 SE8       29.87F
CHICAGO-MIDWAY CLOUDY    67  60  78 CALM      29.89R
AURORA         CLOUDY    66  62  87 SE7       29.87S FOG
LANSING*       CLOUDY    63  59  88 S5        29.90R
WAUKEGAN       CLOUDY    62  58  86 SE6       29.86S
DUPAGE AIRPORT CLOUDY    66  61  84 SE8       29.87S
WHEELING       CLOUDY    64  60  87 S7        29.88S
NORTHERLY ISL    N/A     64  58  80 S1          N/A
$$

LMZ740>746-021400-
SOUTHERN LAKE MICHIGAN

STATION/POSITION SKY/WX   TEMP    WIND        PRES    VSBY  WAVE
                          AIR SEA DIR/SP/G                  HT/PER
                          (F)     (DEG/KT/KT) (MB)    (MI)  (FT/S)
SOUTHERN BUOY              63 62  150/ 14/ 17 1011.9R         3/ 5
WAUKEGAN HARBOR            62     160/ 13/ 15   N/A
HARRISON CRIB              64     180/ 11/ 12   N/A
BURNHAM HARBOR             64     150/  2/  9   N/A
CALUMET HARBOR             65     180/  5/  7 1011.1R
MICHIGAN CITY              63     130/ 14/ 18   N/A
MICHIGAN CITY 6N           64 64  170/ 14/ 17   N/A           2/ 2
ST. JOSEPH                 63 63  130/ 12/ 17   N/A           1/ 2
$$

ILZ025>027-034>036-040-047-049-050-058-095>099-021400-
WEST-CENTRAL ILLINOIS

CITY           SKY/WX    TMP DP  RH WIND       PRES   REMARKS
QUINCY         CLOUDY    64  63  96 S9        29.83R
$$

ILZ028>032-037-038-041>044-048-051>054-059>061-021400-
CENTRAL ILLINOIS

CITY           SKY/WX    TMP DP  RH WIND       PRES   REMARKS
DECATUR        PTSUNNY   67  65  93 S13       29.87R
PEORIA         CLOUDY    67  63  87 S6        29.85R
SPRINGFIELD    CLOUDY    67  64  90 S8        29.85R
TAYLORVILLE    NOT AVBL
$$

ILZ033-039-045-046-055>057-062-063-021400-
EAST-CENTRAL ILLINOIS

CITY           SKY/WX    TMP DP  RH WIND       PRES   REMARKS
MATTOON        LGT RAIN  66  65  96 S13       29.89F
$$

ILZ079-100>102-021400-
SOUTHWEST ILLINOIS

CITY           SKY/WX    TMP DP  RH WIND       PRES   REMARKS
ALTON          RAIN      66  64  94 SE12      29.91R
CAHOKIA*       CLOUDY    68  66  93 NW8       29.91R
SPARTA*        CLOUDY    73  63  72 S3        29.92R
$$

ILZ064>066-069>071-074>076-080>082-084>086-088>090-092>094-021400-
SOUTH-CENTRAL ILLINOIS

CITY           SKY/WX    TMP DP  RH WIND       PRES   REMARKS
CARBONDALE     CLOUDY    71  62  73 S8        29.92S
MARION         PTSUNNY   72  63  73 S12       29.94R
$$

ILZ067-068-072-073-078-083-087-091-021400-
SOUTHEAST ILLINOIS

CITY           SKY/WX    TMP DP  RH WIND       PRES   REMARKS
LAWRENCEVILLE  CLOUDY    68  61  78 NW15      29.97R
ROBINSON*      PTSUNNY   66  64  93 NE8       29.97R
$$

ABBREVIATIONS USED IN REMARKS
   TC - TEMPERATURE IN CELSIUS
  WCI - WIND CHILL INDEX
   HX - HEAT INDEX
  VSB - VISIBILITY
$$



USA.gov is the U.S. government's official web portal to all federal, state and local government web resources and services.